Вернуться в каталог

STARLINK-35234

АктивенСвязьSSO
NORAD 65601·PAYLOAD·🇺🇸 United States

Запущен Sep 13, 2025 с Cape Canaveral Space Force Station

Loading…

Ближайшие Пролёты (ближайшие 24 часа)

TLE

СвежийSource: CelesTrak SupGP

Эпоха: Sep 14, 2026, 22:33 UTC

1 65601C 25207K   26257.94006944  .02266100  00000+0  95808-1 0  2576
2 65601  97.2841 320.6167 0001533  81.1592 158.0738 15.22155215    16

Отслеживайте STARLINK-35234 в реальном времени с AllMySat

Download on the App Store